[[{"header":{"parameterUnit":"m.s-1","parameterCategory":1,"la1":30.2992,"la2":30.254,"lo1":-89.0895,"lo2":-89.0443,"dy":0.0025,"dx":0.0025,"nx":19,"ny":19,"refTime":"2026-04-07T09:00:00:Z","depth":0,"parameterNumber":2,"parameterNumberName":"U-component_of_WINDS"},"data":[0,0,0,-3.6087,-3.6088,-3.6138,-3.6138,-3.6223,-3.6224,0,0,0,0,0,0,0,0,0,0,0,-3.6086,-3.6087,-3.6087,-3.6088,-3.6138,-3.6138,-3.6223,-3.6224,0,0,0,0,0,0,0,0,0,0,0,-3.6085,-3.6086,-3.6088,-3.6089,-3.6138,-3.6138,-3.6222,-3.6177,0,0,0,0,0,0,0,0,0,0,-3.6126,-3.6138,-3.6086,-3.6088,-3.6089,-3.6137,-3.6138,-3.6175,-3.618,-3.621,0,-3.624,0,-3.6233,-3.6231,-3.6231,0,0,0,-3.6078,-3.6133,-3.6135,-3.6088,-3.609,-3.6137,-3.6112,-3.6178,-3.6184,-3.6217,-3.6241,-3.6244,-3.6235,-3.6232,-3.6232,-3.6439,-3.6441,0,0,-3.6076,-3.6102,-3.613,-3.6139,-3.6133,-3.6111,-3.6114,-3.6181,-3.6209,-3.6241,-3.6245,-3.6236,-3.6232,-3.6233,-3.6438,-3.644,0,0,0,-3.6075,-3.61,-3.6099,-3.6136,-3.6143,-3.6113,-3.6116,-3.6206,-3.6203,-3.6246,-3.6237,-3.6233,-3.6234,-3.6436,-3.6439,-3.6538,0,0,0,-3.6072,-3.61,-3.6099,-3.6115,-3.6143,-3.6175,-3.614,-3.6198,-3.6205,-3.6237,-3.6233,-3.6235,-3.6435,-3.6438,-3.6532,-3.6582,0,0,0,-3.6078,-3.61,-3.6112,-3.6116,-3.6139,-3.6173,-3.6174,-3.6199,-3.6201,-3.6231,-3.6236,-3.6434,-3.6437,-3.6526,-3.6573,-3.6647,0,0,0,-3.6091,-3.6198,-3.6114,-3.6229,-3.6138,-3.6234,-3.6174,-3.6243,-3.6281,-3.6233,-3.6435,-3.6438,-3.6525,-3.6567,-3.6641,-3.6717,-3.675,0,0,-3.624,-3.6217,-3.6282,-3.6209,-3.6326,-3.6224,-3.6356,-3.6365,-3.6343,-3.6409,-3.6413,-3.6534,-3.6572,-3.6646,-3.6919,-3.6946,0,0,0,-3.6339,-3.6387,-3.6412,-3.645,-3.646,-3.6474,-3.646,-3.6463,-3.6518,-3.6382,-3.6578,-3.66,-3.6642,-3.6677,-3.67,-3.6736,-3.6455,-3.6454,-3.6454,-3.659,-3.6557,-3.6664,-3.6638,-3.6675,-3.666,-3.6688,-3.669,-3.6645,-3.6692,-3.6713,-3.6882,-3.6924,-3.6941,-3.6979,-3.6746,-3.6746,-3.6747,-3.6747,-3.6809,-3.6873,-3.681,-3.6893,-3.6858,-3.6926,-3.6916,-3.6881,-3.6941,-3.6863,-3.6899,-3.6821,-3.6971,-3.7003,-3.6754,-3.6753,-3.6752,-3.6751,-3.6751,-3.6973,-3.6999,-3.7001,-3.7053,-3.7097,-3.7065,-3.7126,-3.709,-3.7056,-3.7091,-3.7111,-3.7109,-3.7107,-3.7102,-3.7103,-3.7103,-3.7104,-3.7104,-3.7105,-3.7145,-3.7144,-3.72,-3.722,-3.724,-3.7263,-3.7248,-3.7267,-3.728,-3.7249,-3.7249,-3.7201,-3.699,-3.6941,-3.7114,-3.7112,-3.7111,-3.711,-3.711,-3.7387,-3.7326,-3.7413,-3.7434,-3.7455,-3.7503,-3.7454,-3.7497,-3.7507,-3.7539,-3.7482,-3.7331,-3.7304,-3.7286,-3.7245,-3.7487,-3.7487,-3.7487,-3.7487,-3.7529,-3.7511,-3.7593,-3.7629,-3.7659,-3.7625,-3.7726,-3.7716,-3.7695,-3.77,-3.7659,-3.7599,-3.7582,-3.7566,-3.7542,-3.7503,-3.7805,-3.7805,-3.7805,-3.7678,-3.7661,-3.7755,-3.7734,-3.7748,-3.7761,-3.7855,-3.79,-3.7863,-3.7818,-3.7704,-3.769,-3.7594,-3.7564,-3.7521,-3.7484,-3.7412,0,0]},{"header":{"parameterUnit":"m.s-1","parameterCategory":1,"la1":30.2992,"la2":30.254,"lo1":-89.0895,"lo2":-89.0443,"dy":0.0025,"dx":0.0025,"nx":19,"ny":19,"refTime":"2026-04-07T09:00:00:Z","depth":0,"parameterNumber":3,"parameterNumberName":"V-component_of_WINDS"},"data":[0,0,0,-4.2222,-4.2222,-4.2249,-4.2249,-4.2298,-4.2299,0,0,0,0,0,0,0,0,0,0,0,-4.2225,-4.2225,-4.2222,-4.2223,-4.2249,-4.2249,-4.2298,-4.2299,0,0,0,0,0,0,0,0,0,0,0,-4.2224,-4.2225,-4.2226,-4.2223,-4.2249,-4.2249,-4.2298,-4.2272,0,0,0,0,0,0,0,0,0,0,-4.2244,-4.2258,-4.2225,-4.2226,-4.2223,-4.2249,-4.2249,-4.2271,-4.2274,-4.2294,0,-4.2315,0,-4.2308,-4.2303,-4.2304,0,0,0,-4.2214,-4.2255,-4.2252,-4.2226,-4.2223,-4.2249,-4.2235,-4.2272,-4.2276,-4.2298,-4.2315,-4.2317,-4.2309,-4.2304,-4.2304,-4.2446,-4.2447,0,0,-4.2213,-4.2235,-4.225,-4.2255,-4.2253,-4.2234,-4.2235,-4.2274,-4.2294,-4.2315,-4.2318,-4.2309,-4.2304,-4.2305,-4.2445,-4.2447,0,0,0,-4.2214,-4.2234,-4.223,-4.2254,-4.2257,-4.2235,-4.2237,-4.2293,-4.2289,-4.2318,-4.231,-4.2305,-4.2305,-4.2444,-4.2446,-4.2519,0,0,0,-4.2213,-4.2235,-4.223,-4.2244,-4.2257,-4.2275,-4.2254,-4.2287,-4.2291,-4.231,-4.2305,-4.2306,-4.2443,-4.2445,-4.2514,-4.255,0,0,0,-4.2219,-4.2235,-4.2243,-4.2245,-4.2257,-4.2274,-4.2273,-4.2287,-4.2286,-4.2304,-4.2306,-4.2442,-4.2445,-4.251,-4.2543,-4.2594,0,0,0,-4.2232,-4.2308,-4.2245,-4.2326,-4.2257,-4.2319,-4.2273,-4.2318,-4.2342,-4.2305,-4.2443,-4.2446,-4.2509,-4.2539,-4.259,-4.2641,-4.2665,0,0,-4.234,-4.2321,-4.2367,-4.2312,-4.2391,-4.2314,-4.2403,-4.2404,-4.2385,-4.2427,-4.243,-4.2516,-4.2543,-4.2593,-4.2787,-4.2806,0,0,0,-4.2409,-4.2442,-4.2458,-4.2482,-4.2485,-4.249,-4.2474,-4.2474,-4.2509,-4.2411,-4.2547,-4.2562,-4.2591,-4.2615,-4.263,-4.2654,-4.2457,-4.2457,-4.2457,-4.2593,-4.2565,-4.2639,-4.2614,-4.2638,-4.2621,-4.2638,-4.2635,-4.26,-4.2632,-4.2645,-4.2765,-4.2794,-4.2806,-4.283,-4.2669,-4.2669,-4.2669,-4.267,-4.2748,-4.2791,-4.2742,-4.2797,-4.2767,-4.2812,-4.2798,-4.2772,-4.281,-4.2754,-4.2778,-4.272,-4.2827,-4.2847,-4.2675,-4.2674,-4.2673,-4.2673,-4.2672,-4.2866,-4.2882,-4.2881,-4.2912,-4.2939,-4.2911,-4.2949,-4.292,-4.2893,-4.2916,-4.2926,-4.2925,-4.2921,-4.2923,-4.2923,-4.2924,-4.2924,-4.2925,-4.2925,-4.299,-4.2986,-4.3022,-4.3031,-4.3042,-4.3053,-4.3036,-4.3046,-4.305,-4.3026,-4.3026,-4.2988,-4.2842,-4.2807,-4.2931,-4.293,-4.2929,-4.2929,-4.2928,-4.3159,-4.3116,-4.3172,-4.3183,-4.319,-4.3219,-4.3181,-4.3204,-4.3208,-4.3228,-4.3184,-4.3082,-4.3061,-4.3048,-4.3018,-4.319,-4.319,-4.319,-4.319,-4.3259,-4.3246,-4.3296,-4.3316,-4.3332,-4.3303,-4.3367,-4.3354,-4.3335,-4.3335,-4.3306,-4.3264,-4.3252,-4.3238,-4.3221,-4.3193,-4.3406,-4.3406,-4.3406,-4.3362,-4.3348,-4.3409,-4.3389,-4.3392,-4.3396,-4.3455,-4.3479,-4.3448,-4.3414,-4.3335,-4.3326,-4.3258,-4.3237,-4.3203,-4.3177,-4.3125,0,0]}]]